This demonstration page uses our WeatherBlox Daily Observations layout. Learn more.

Left ArrowRight Arrow

41.12389, -100.76542

Hourly Observations for May 11, 2017

Temp ( °F °C ) Dew Point ( °F °C ) Humidity (%) Winds ( mph kmh ) Pressure ( in mb ) Visibility ( mi km ) Precip ( " mm )
12:53 am 00:53 Cloudy 53 11.7 49 9.4 86 86 ENE 3 6 30.04 1017 10 16 0.00 0.00
1:53 am 01:53 Cloudy 53 11.7 49 9.4 86 86 Calm 30.03 1017 10 16 0.00 0.00
2:53 am 02:53 Cloudy 53 11.7 49 9.4 86 86 NNW 5 7 30.05 1018 10 16 0.00 0.00
3:53 am 03:53 Cloudy 53 11.7 48 8.9 83 83 N 5 7 30.07 1018 10 16 0.00 0.00
4:53 am 04:53 Cloudy 53 11.7 49 9.4 86 86 N 6 9 30.07 1018 10 16 0.00 0.00
5:53 am 05:53 Cloudy with Light Rain 52 11.1 49 9.4 89 89 N 5 7 30.09 1019 10 16 0.01 0.25
6:53 am 06:53 Cloudy 53 11.7 50 10 89 89 NNE 7 11 30.09 1019 10 16 0.00 0.03
7:53 am 07:53 Cloudy 55 12.8 49 9.4 80 80 NE 12 19 30.09 1019 10 16 0.00 0.03
8:53 am 08:53 Sunny 58 14.4 44 6.7 60 60 NE 15 24 30.09 1019 10 16 0.00 0.00
9:53 am 09:53 Cloudy 60 15.6 38 3.3 44 44 ENE 16 26 30.11 1020 10 16 0.00 0.00
10:53 am 10:53 Sunny 64 17.8 37 2.8 37 37 ENE 16 26 30.10 1019 10 16 0.00 0.00
11:53 am 11:53 Sunny 66 18.9 38 3.3 36 36 ENE 13 20 30.10 1019 10 16 0.00 0.00
12:53 pm 12:53 Sunny 67 19.4 37 2.8 33 33 NE 16 26 30.10 1019 10 16 0.00 0.00
1:53 pm 13:53 Sunny 68 20 39 3.9 35 35 NE 15 24 30.09 1019 10 16 0.00 0.00
2:53 pm 14:53 Sunny 69 20.6 38 3.3 32 32 E 17 28 30.09 1019 10 16 0.00 0.00
3:53 pm 15:53 Sunny 69 20.6 36 2.2 30 30 NE 13 20 30.09 1019 10 16 0.00 0.00
4:53 pm 16:53 Sunny 70 21.1 38 3.3 31 31 NNE 12 19 30.08 1019 10 16 0.00 0.00
5:53 pm 17:53 Sunny 70 21.1 38 3.3 31 31 NE 10 17 30.07 1018 10 16 0.00 0.00
6:53 pm 18:53 Sunny 68 20 38 3.3 33 33 NE 9 15 30.06 1018 10 16 0.00 0.00
7:53 pm 19:53 Sunny 65 18.3 39 3.9 39 39 NE 7 11 30.06 1018 10 16 0.00 0.00
8:53 pm 20:53 Clear 56 13.3 41 5 57 57 NE 7 11 30.09 1019 10 16 0.00 0.00
9:53 pm 21:53 Clear 51 10.6 41 5 69 69 ENE 7 11 30.11 1020 10 16 0.00 0.00
10:53 pm 22:53 Clear 48 8.9 40 4.4 74 74 ESE 7 11 30.13 1020 10 16 0.00 0.00
11:53 pm 23:53 Clear 46 7.8 40 4.4 79 79 E 3 6 30.14 1021 10 16 0.00 0.00

Powered by AerisWeather